Time,TemperatureF,DewpointF,PressureIn,WindDirection,WindDirectionDegrees,WindSpeedMPH,WindSpeedGustMPH,Humidity,HourlyPrecipIn,Conditions,Clouds,dailyrainin,SolarRadiationWatts/m^2,SoftwareType,DateUTC
2013-04-17 00:02:00,36.0,21.0,-100.00,SE,128,3.0,6.0,53,0.00,,,0.00,0.000000,,2013-04-17 07:02:00,
2013-04-17 00:12:00,36.0,21.0,-100.00,SE,128,3.0,6.0,53,0.00,,,0.00,0.000000,,2013-04-17 07:12:00,
2013-04-17 00:22:00,36.0,21.0,-100.00,SE,128,3.0,6.0,53,0.00,,,0.00,0.000000,,2013-04-17 07:22:00,
2013-04-17 00:52:00,35.0,20.0,-100.00,SE,146,1.0,5.0,53,0.00,,,0.00,0.000000,,2013-04-17 07:52:00,
2013-04-17 01:02:00,35.0,20.0,-100.00,SE,146,1.0,5.0,53,0.00,,,0.00,0.000000,,2013-04-17 08:02:00,
2013-04-17 01:12:00,35.0,20.0,-100.00,SE,146,1.0,5.0,53,0.00,,,0.00,0.000000,,2013-04-17 08:12:00,
2013-04-17 01:21:00,35.0,20.0,-100.00,SE,146,1.0,5.0,53,0.00,,,0.00,0.000000,,2013-04-17 08:21:00,
2013-04-17 01:52:00,36.0,19.0,-100.00,SSE,166,0.0,3.0,50,0.00,,,0.00,0.000000,,2013-04-17 08:52:00,
2013-04-17 02:02:00,36.0,19.0,-100.00,SSE,166,0.0,3.0,50,0.00,,,0.00,0.000000,,2013-04-17 09:02:00,
2013-04-17 02:12:00,36.0,19.0,-100.00,SSE,166,0.0,3.0,50,0.00,,,0.00,0.000000,,2013-04-17 09:12:00,
2013-04-17 02:22:00,36.0,19.0,-100.00,SSE,166,0.0,3.0,50,0.00,,,0.00,0.000000,,2013-04-17 09:22:00,
2013-04-17 02:52:00,37.0,18.0,-100.00,SSE,161,0.0,3.0,46,0.00,,,0.00,0.000000,,2013-04-17 09:52:00,
2013-04-17 03:02:00,37.0,18.0,-100.00,SSE,161,0.0,3.0,46,0.00,,,0.00,0.000000,,2013-04-17 10:02:00,
2013-04-17 03:12:00,37.0,18.0,-100.00,SSE,161,0.0,3.0,46,0.00,,,0.00,0.000000,,2013-04-17 10:12:00,
2013-04-17 03:23:00,37.0,18.0,-100.00,SSE,161,0.0,3.0,46,0.00,,,0.00,0.000000,,2013-04-17 10:23:00,
2013-04-17 03:52:00,36.0,21.0,-100.00,SE,126,2.0,5.0,53,0.00,,,0.00,0.000000,,2013-04-17 10:52:00,
2013-04-17 04:02:00,36.0,21.0,-100.00,SE,126,2.0,5.0,53,0.00,,,0.00,0.000000,,2013-04-17 11:02:00,
2013-04-17 04:11:00,36.0,21.0,-100.00,SE,126,2.0,5.0,53,0.00,,,0.00,0.000000,,2013-04-17 11:11:00,
2013-04-17 04:22:00,36.0,21.0,-100.00,SE,126,2.0,5.0,53,0.00,,,0.00,0.000000,,2013-04-17 11:22:00,
2013-04-17 04:52:00,37.0,20.0,-100.00,SSE,149,1.0,5.0,49,0.00,,,0.00,0.000000,,2013-04-17 11:52:00,
2013-04-17 05:02:00,37.0,20.0,-100.00,SSE,149,1.0,5.0,49,0.00,,,0.00,0.000000,,2013-04-17 12:02:00,
2013-04-17 05:12:00,37.0,20.0,-100.00,SSE,149,1.0,5.0,49,0.00,,,0.00,0.000000,,2013-04-17 12:12:00,
2013-04-17 05:22:00,37.0,20.0,-100.00,SSE,149,1.0,5.0,49,0.00,,,0.00,0.000000,,2013-04-17 12:22:00,
2013-04-17 05:52:00,38.0,23.0,-100.00,SSE,159,1.0,5.0,54,0.00,,,0.00,0.000000,,2013-04-17 12:52:00,
2013-04-17 06:02:00,38.0,23.0,-100.00,SSE,159,1.0,5.0,54,0.00,,,0.00,0.000000,,2013-04-17 13:02:00,
2013-04-17 06:12:00,38.0,23.0,-100.00,SSE,159,1.0,5.0,54,0.00,,,0.00,0.000000,,2013-04-17 13:12:00,
2013-04-17 06:21:00,38.0,23.0,-100.00,SSE,159,1.0,5.0,54,0.00,,,0.00,0.000000,,2013-04-17 13:21:00,
2013-04-17 06:52:00,38.0,23.0,-100.00,SSE,150,2.0,4.0,55,0.00,,,0.00,0.000000,,2013-04-17 13:52:00,
2013-04-17 07:02:00,38.0,23.0,-100.00,SSE,150,2.0,4.0,55,0.00,,,0.00,0.000000,,2013-04-17 14:02:00,
2013-04-17 07:12:00,38.0,23.0,-100.00,SSE,150,2.0,4.0,55,0.00,,,0.00,0.000000,,2013-04-17 14:12:00,
2013-04-17 07:22:00,38.0,23.0,-100.00,SSE,150,2.0,4.0,55,0.00,,,0.00,0.000000,,2013-04-17 14:22:00,
2013-04-17 07:52:00,39.0,27.0,-100.00,ESE,118,2.0,6.0,61,0.00,,,0.00,22.000000,,2013-04-17 14:52:00,
2013-04-17 08:02:00,39.0,27.0,-100.00,ESE,118,2.0,6.0,61,0.00,,,0.00,22.000000,,2013-04-17 15:02:00,
2013-04-17 08:12:00,39.0,27.0,-100.00,ESE,118,2.0,6.0,61,0.00,,,0.00,22.000000,,2013-04-17 15:12:00,
2013-04-17 08:22:00,39.0,27.0,-100.00,ESE,118,2.0,6.0,61,0.00,,,0.00,22.000000,,2013-04-17 15:22:00,
2013-04-17 08:53:00,41.0,30.0,-100.00,SSE,151,0.0,4.0,64,0.00,,,0.00,110.000000,,2013-04-17 15:53:00,
2013-04-17 09:03:00,41.0,30.0,-100.00,SSE,151,0.0,4.0,64,0.00,,,0.00,110.000000,,2013-04-17 16:03:00,
2013-04-17 09:12:00,41.0,30.0,-100.00,SSE,151,0.0,4.0,64,0.00,,,0.00,110.000000,,2013-04-17 16:12:00,
2013-04-17 09:22:00,41.0,30.0,-100.00,SSE,151,0.0,4.0,64,0.00,,,0.00,110.000000,,2013-04-17 16:22:00,
2013-04-17 09:52:00,43.0,30.0,-100.00,North,9,2.0,5.0,59,0.00,,,0.00,232.000000,,2013-04-17 16:52:00,
2013-04-17 10:02:00,43.0,30.0,-100.00,North,9,2.0,5.0,59,0.00,,,0.00,232.000000,,2013-04-17 17:02:00,
2013-04-17 10:12:00,43.0,30.0,-100.00,North,9,2.0,5.0,59,0.00,,,0.00,232.000000,,2013-04-17 17:12:00,
2013-04-17 10:22:00,43.0,30.0,-100.00,North,9,2.0,5.0,59,0.00,,,0.00,232.000000,,2013-04-17 17:22:00,
2013-04-17 10:52:00,43.0,32.0,-100.00,West,275,4.0,10.0,64,0.00,,,0.00,406.000000,,2013-04-17 17:52:00,
2013-04-17 11:02:00,43.0,32.0,-100.00,West,275,4.0,10.0,64,0.00,,,0.00,406.000000,,2013-04-17 18:02:00,
2013-04-17 11:12:00,43.0,32.0,-100.00,West,275,4.0,10.0,64,0.00,,,0.00,406.000000,,2013-04-17 18:12:00,
2013-04-17 11:21:00,43.0,32.0,-100.00,West,275,4.0,10.0,64,0.00,,,0.00,406.000000,,2013-04-17 18:21:00,
2013-04-17 11:52:00,48.0,31.0,-100.00,WSW,252,4.0,11.0,52,0.00,,,0.00,346.000000,,2013-04-17 18:52:00,
2013-04-17 12:02:00,48.0,31.0,-100.00,WSW,252,4.0,11.0,52,0.00,,,0.00,346.000000,,2013-04-17 19:02:00,
2013-04-17 12:12:00,48.0,31.0,-100.00,WSW,252,4.0,11.0,52,0.00,,,0.00,346.000000,,2013-04-17 19:12:00,
2013-04-17 12:22:00,48.0,31.0,-100.00,WSW,252,4.0,11.0,52,0.00,,,0.00,346.000000,,2013-04-17 19:22:00,
2013-04-17 12:52:00,50.0,32.0,-100.00,West,270,4.0,14.0,49,0.00,,,0.00,559.000000,,2013-04-17 19:52:00,
2013-04-17 13:02:00,50.0,32.0,-100.00,West,270,4.0,14.0,49,0.00,,,0.00,559.000000,,2013-04-17 20:02:00,
2013-04-17 13:12:00,50.0,32.0,-100.00,West,270,4.0,14.0,49,0.00,,,0.00,559.000000,,2013-04-17 20:12:00,
2013-04-17 13:22:00,50.0,32.0,-100.00,West,270,4.0,14.0,49,0.00,,,0.00,559.000000,,2013-04-17 20:22:00,
2013-04-17 13:52:00,52.0,31.0,-100.00,West,267,4.0,9.0,44,0.00,,,0.00,755.000000,,2013-04-17 20:52:00,
2013-04-17 14:02:00,52.0,31.0,-100.00,West,267,4.0,9.0,44,0.00,,,0.00,755.000000,,2013-04-17 21:02:00,
2013-04-17 14:12:00,52.0,31.0,-100.00,West,267,4.0,9.0,44,0.00,,,0.00,755.000000,,2013-04-17 21:12:00,
2013-04-17 14:22:00,52.0,31.0,-100.00,West,267,4.0,9.0,44,0.00,,,0.00,755.000000,,2013-04-17 21:22:00,
2013-04-17 14:53:00,46.0,34.0,-100.00,West,268,11.0,19.0,63,0.00,,,0.00,557.000000,,2013-04-17 21:53:00,
2013-04-17 15:02:00,46.0,34.0,-100.00,West,268,11.0,19.0,63,0.00,,,0.00,557.000000,,2013-04-17 22:02:00,
2013-04-17 15:12:00,46.0,34.0,-100.00,West,268,11.0,19.0,63,0.00,,,0.00,557.000000,,2013-04-17 22:12:00,
2013-04-17 15:22:00,46.0,34.0,-100.00,West,268,11.0,19.0,63,0.00,,,0.00,557.000000,,2013-04-17 22:22:00,
2013-04-17 15:53:00,47.0,35.0,-100.00,West,264,6.0,15.0,62,0.00,,,0.00,338.000000,,2013-04-17 22:53:00,
2013-04-17 16:02:00,47.0,35.0,-100.00,West,264,6.0,15.0,62,0.00,,,0.00,338.000000,,2013-04-17 23:02:00,
2013-04-17 16:12:00,47.0,35.0,-100.00,West,264,6.0,15.0,62,0.00,,,0.00,338.000000,,2013-04-17 23:12:00,
2013-04-17 16:22:00,47.0,35.0,-100.00,West,264,6.0,15.0,62,0.00,,,0.00,338.000000,,2013-04-17 23:22:00,
2013-04-17 16:52:00,43.0,36.0,-100.00,West,268,9.0,17.0,75,0.00,,,0.00,191.000000,,2013-04-17 23:52:00,
2013-04-17 17:02:00,43.0,36.0,-100.00,West,268,9.0,17.0,75,0.00,,,0.00,191.000000,,2013-04-18 00:02:00,
2013-04-17 17:12:00,43.0,36.0,-100.00,West,268,9.0,17.0,75,0.00,,,0.00,191.000000,,2013-04-18 00:12:00,
2013-04-17 17:22:00,43.0,36.0,-100.00,West,268,9.0,17.0,75,0.00,,,0.00,191.000000,,2013-04-18 00:22:00,
2013-04-17 17:52:00,39.0,36.0,-100.00,West,276,7.0,19.0,88,0.01,,,0.01,126.000000,,2013-04-18 00:52:00,
2013-04-17 18:02:00,39.0,36.0,-100.00,West,276,7.0,19.0,88,0.01,,,0.01,126.000000,,2013-04-18 01:02:00,
2013-04-17 18:12:00,39.0,36.0,-100.00,West,276,7.0,19.0,88,0.01,,,0.01,126.000000,,2013-04-18 01:12:00,
2013-04-17 18:22:00,39.0,36.0,-100.00,West,276,7.0,19.0,88,0.01,,,0.01,126.000000,,2013-04-18 01:22:00,
2013-04-17 18:52:00,38.0,35.0,-100.00,South,185,2.0,11.0,89,0.03,,,0.04,104.000000,,2013-04-18 01:52:00,
2013-04-17 19:02:00,38.0,35.0,-100.00,South,185,2.0,11.0,89,0.03,,,0.04,104.000000,,2013-04-18 02:02:00,
2013-04-17 19:12:00,38.0,35.0,-100.00,South,185,2.0,11.0,89,0.03,,,0.04,104.000000,,2013-04-18 02:12:00,
2013-04-17 19:22:00,38.0,35.0,-100.00,South,185,2.0,11.0,89,0.03,,,0.04,104.000000,,2013-04-18 02:22:00,
2013-04-17 20:02:00,37.0,35.0,-100.00,SSE,164,0.0,5.0,91,0.00,,,0.04,59.000000,,2013-04-18 03:02:00,
2013-04-17 20:12:00,37.0,35.0,-100.00,SSE,164,0.0,5.0,91,0.00,,,0.04,59.000000,,2013-04-18 03:12:00,
2013-04-17 20:22:00,37.0,35.0,-100.00,SSE,164,0.0,5.0,91,0.00,,,0.04,59.000000,,2013-04-18 03:22:00,
2013-04-17 20:53:00,36.0,34.0,-100.00,East,98,0.0,3.0,94,0.00,,,0.04,17.000000,,2013-04-18 03:53:00,
2013-04-17 21:03:00,36.0,34.0,-100.00,East,98,0.0,3.0,94,0.00,,,0.04,17.000000,,2013-04-18 04:03:00,
2013-04-17 21:13:00,36.0,34.0,-100.00,East,98,0.0,3.0,94,0.00,,,0.04,17.000000,,2013-04-18 04:13:00,
2013-04-17 21:23:00,36.0,34.0,-100.00,East,98,0.0,3.0,94,0.00,,,0.04,17.000000,,2013-04-18 04:23:00,
2013-04-17 21:53:00,36.0,33.0,-100.00,SW,233,0.0,3.0,89,0.00,,,0.04,0.000000,,2013-04-18 04:53:00,
2013-04-17 22:02:00,36.0,33.0,-100.00,SW,233,0.0,3.0,89,0.00,,,0.04,0.000000,,2013-04-18 05:02:00,
2013-04-17 22:12:00,36.0,33.0,-100.00,SW,233,0.0,3.0,89,0.00,,,0.04,0.000000,,2013-04-18 05:12:00,
2013-04-17 22:22:00,36.0,33.0,-100.00,SW,233,0.0,3.0,89,0.00,,,0.04,0.000000,,2013-04-18 05:22:00,
2013-04-17 22:52:00,35.0,34.0,-100.00,ESE,118,0.0,3.0,95,0.00,,,0.04,0.000000,,2013-04-18 05:52:00,
2013-04-17 23:02:00,35.0,34.0,-100.00,ESE,118,0.0,3.0,95,0.00,,,0.04,0.000000,,2013-04-18 06:02:00,
2013-04-17 23:12:00,35.0,34.0,-100.00,ESE,118,0.0,3.0,95,0.00,,,0.04,0.000000,,2013-04-18 06:12:00,
2013-04-17 23:22:00,35.0,34.0,-100.00,ESE,118,0.0,3.0,95,0.00,,,0.04,0.000000,,2013-04-18 06:22:00,
2013-04-17 23:52:00,35.0,34.0,-100.00,SE,124,0.0,2.0,96,0.01,,,-99.99,0.000000,,2013-04-18 06:52:00,